Date String (YYYY-MM-DD hh:mm:ss) UTC,Instrument flags,Ambient pressure (hPa),Sample flow (lpm),Bypass flow (lpm),Sample temperature (°C),Ambient temperature (°C),ASC tube jacket temperature (°C),LED temperature (°C),Box temperature (°C),Sample RH (%),Span deviation,Mass concentration (μg/m³),Mass concentration (μg/m³),Mass concentration (μg/m³)
DateTimeUTC,F1_M11,P_M11,Q1_M11,Q2_M11,T1_M11,T2_M11,T3_M11,T4_M11,T5_M11,U1_M11,ZSPAN_M11,X0_M11,X2_M11,X1_M11
2022-02-13 07:00:00,,0832.1,5.00,0.00,22.3,21.5,00.0,31.4,24.0,08.9,0000.0,0008.07,0003.93,0003.41
2022-02-13 07:01:00,,0832.1,5.00,0.00,22.3,21.6,00.0,31.3,24.0,08.9,0000.0,0008.27,0003.95,0003.45
2022-02-13 07:02:00,,0832.2,5.00,0.00,22.4,22.0,00.0,31.4,24.1,08.9,0000.0,0008.56,0003.89,0003.40
2022-02-13 07:03:00,,0832.1,5.00,0.00,22.5,22.7,00.0,31.4,24.4,08.8,0000.0,0008.36,0003.79,0003.31
2022-02-13 07:04:00,,0832.1,4.99,0.00,22.6,23.2,00.0,31.4,24.5,08.8,0000.0,0008.14,0003.66,0003.22
2022-02-13 07:05:00,,0832.1,5.00,0.00,22.6,23.0,00.0,31.4,24.6,08.7,0000.0,0008.09,0003.59,0003.16
2022-02-13 07:06:00,,0832.1,5.00,0.00,22.7,22.8,00.0,31.5,24.6,08.7,0000.0,0007.91,0003.49,0003.03
2022-02-13 07:07:00,,0832.1,5.00,0.00,22.7,22.6,00.0,31.5,24.5,08.7,0000.0,0008.10,0003.41,0002.90
2022-02-13 07:08:00,,0832.1,5.01,0.00,22.6,22.5,00.0,31.5,24.5,08.6,0000.0,0008.63,0003.29,0002.76
2022-02-13 07:09:00,,0832.1,4.98,0.00,22.6,22.3,00.0,31.5,24.4,08.6,0000.0,0008.46,0003.20,0002.63
2022-02-13 07:10:00,,0832.1,5.01,0.00,22.6,22.2,00.0,31.5,24.4,08.5,0000.0,0008.26,0003.07,0002.49
2022-02-13 07:11:00,,0832.0,5.01,0.00,22.6,22.1,00.0,31.5,24.4,08.5,0000.0,0007.88,0002.92,0002.39
2022-02-13 07:12:00,,0832.1,4.99,0.00,22.6,22.1,00.0,31.5,24.4,08.5,0000.0,0007.73,0002.86,0002.31
2022-02-13 07:13:00,,0832.1,5.01,0.00,22.6,22.0,00.0,31.5,24.4,08.5,0000.0,0007.16,0002.82,0002.24
2022-02-13 07:14:00,,0832.1,5.00,0.00,22.6,22.0,00.0,31.5,24.4,08.5,0000.0,0007.70,0002.75,0002.16
2022-02-13 07:15:00,,0832.1,5.00,0.00,22.6,21.9,00.0,31.5,24.4,08.5,0000.0,0007.60,0002.65,0002.07
2022-02-13 07:16:00,,0832.1,4.99,0.00,22.6,21.9,00.0,31.5,24.4,08.5,0000.0,0007.44,0002.55,0001.99
2022-02-13 07:17:00,,0832.1,5.00,0.00,22.6,21.9,00.0,31.5,24.4,08.6,0000.0,0007.41,0002.51,0001.97
2022-02-13 07:18:00,,0832.1,5.01,0.00,22.6,21.8,00.0,31.5,24.3,08.6,0000.0,0006.63,0002.47,0001.95
2022-02-13 07:19:00,,0832.1,4.99,0.00,22.6,21.8,00.0,31.5,24.3,08.7,0000.0,0005.12,0002.50,0001.95
2022-02-13 07:20:00,,0832.1,5.01,0.00,22.6,21.8,00.0,31.5,24.3,08.7,0000.0,0005.49,0002.49,0001.95
2022-02-13 07:21:00,,0832.1,4.99,0.00,22.5,21.8,00.0,31.5,24.3,08.7,0000.0,0005.91,0002.52,0001.98
2022-02-13 07:22:00,,0832.1,5.01,0.00,22.5,21.8,00.0,31.5,24.3,08.9,0000.0,0006.21,0002.62,0002.07
2022-02-13 07:23:00,,0832.1,4.99,0.00,22.5,21.7,00.0,31.5,24.3,08.9,0000.0,0006.37,0002.70,0002.16
2022-02-13 07:24:00,,0832.0,5.01,0.00,22.5,21.7,00.0,31.5,24.3,08.8,0000.0,0006.24,0002.71,0002.19
2022-02-13 07:25:00,,0832.0,5.01,0.00,22.5,21.7,00.0,31.5,24.3,08.8,0000.0,0005.27,0002.73,0002.26
2022-02-13 07:26:00,,0832.1,4.99,0.00,22.5,21.7,00.0,31.5,24.3,08.9,0000.0,0005.56,0002.89,0002.37
2022-02-13 07:27:00,,0832.0,5.00,0.00,22.5,21.7,00.0,31.5,24.3,09.0,0000.0,0005.97,0003.09,0002.53
2022-02-13 07:28:00,,0832.0,5.01,0.00,22.5,21.7,00.0,31.5,24.2,09.2,0000.0,0006.73,0003.20,0002.70
2022-02-13 07:29:00,,0832.1,4.99,0.00,22.5,21.7,00.0,31.5,24.2,09.3,0000.0,0007.27,0003.30,0002.88
2022-02-13 07:30:00,,0832.1,5.01,0.00,22.5,21.7,00.0,31.4,24.2,09.4,0000.0,0007.59,0003.45,0003.07
2022-02-13 07:31:00,,0832.1,5.00,0.00,22.5,21.7,00.0,31.4,24.2,09.5,0000.0,0007.65,0003.66,0003.27
2022-02-13 07:32:00,,0832.1,5.00,0.00,22.5,21.6,00.0,31.4,24.2,09.4,0000.0,0007.69,0003.81,0003.41
2022-02-13 07:33:00,,0832.1,5.00,0.00,22.4,21.6,00.0,31.4,24.2,09.2,0000.0,0007.77,0003.89,0003.46
2022-02-13 07:34:00,,0832.1,4.99,0.00,22.4,21.6,00.0,31.4,24.2,09.1,0000.0,0007.80,0003.94,0003.48
2022-02-13 07:35:00,,0832.0,5.00,0.00,22.4,21.6,00.0,31.4,24.2,09.2,0000.0,0007.97,0004.03,0003.54
2022-02-13 07:36:00,,0832.0,5.00,0.00,22.4,21.6,00.0,31.4,24.2,09.3,0000.0,0008.19,0004.18,0003.65
2022-02-13 07:37:00,,0832.0,5.00,0.00,22.4,21.8,00.0,31.4,24.2,09.4,0000.0,0008.29,0004.27,0003.75
2022-02-13 07:38:00,,0832.1,4.99,0.00,22.5,22.5,00.0,31.4,24.4,09.4,0000.0,0008.34,0004.35,0003.82
2022-02-13 07:39:00,,0832.1,5.00,0.00,22.6,23.2,00.0,31.4,24.6,09.3,0000.0,0008.17,0004.40,0003.87
2022-02-13 07:40:00,,0832.1,5.01,0.00,22.7,23.1,00.0,31.5,24.7,09.2,0000.0,0008.08,0004.44,0003.90
2022-02-13 07:41:00,,0832.0,5.00,0.00,22.7,22.9,00.0,31.5,24.7,09.1,0000.0,0008.10,0004.40,0003.88
2022-02-13 07:42:00,,0832.0,5.00,0.00,22.7,22.7,00.0,31.5,24.6,09.1,0000.0,0008.04,0004.34,0003.80
2022-02-13 07:43:00,,0831.9,4.99,0.00,22.7,22.5,00.0,31.5,24.6,09.2,0000.0,0007.98,0004.31,0003.77
2022-02-13 07:44:00,,0832.0,4.99,0.00,22.7,22.4,00.0,31.5,24.6,09.3,0000.0,0008.04,0004.32,0003.80
2022-02-13 07:45:00,,0832.0,5.02,0.00,22.7,22.3,00.0,31.5,24.5,09.2,0000.0,0008.02,0004.33,0003.85
2022-02-13 07:46:00,,0832.0,5.00,0.00,22.7,22.2,00.0,31.5,24.5,09.0,0000.0,0007.94,0004.29,0003.83
2022-02-13 07:47:00,,0832.0,5.00,0.00,22.7,22.1,00.0,31.6,24.5,09.0,0000.0,0007.81,0004.21,0003.77
2022-02-13 07:48:00,,0832.0,5.01,0.00,22.7,22.0,00.0,31.6,24.5,08.9,0000.0,0007.89,0004.14,0003.67
2022-02-13 07:49:00,,0832.0,4.99,0.00,22.7,22.0,00.0,31.6,24.5,08.9,0000.0,0007.97,0004.03,0003.58
2022-02-13 07:50:00,,0831.9,5.01,0.00,22.7,22.0,00.0,31.6,24.4,08.9,0000.0,0007.86,0003.94,0003.50
2022-02-13 07:51:00,,0831.9,5.00,0.00,22.7,21.9,00.0,31.6,24.4,08.9,0000.0,0007.66,0003.84,0003.42
2022-02-13 07:52:00,,0831.9,4.99,0.00,22.6,21.9,00.0,31.6,24.4,08.9,0000.0,0007.42,0003.78,0003.38
2022-02-13 07:53:00,,0831.9,5.01,0.00,22.6,21.8,00.0,31.6,24.4,08.9,0000.0,0007.16,0003.70,0003.33
2022-02-13 07:54:00,,0831.8,4.99,0.00,22.6,21.8,00.0,31.5,24.4,09.0,0000.0,0007.06,0003.63,0003.26
2022-02-13 07:55:00,,0831.8,5.00,0.00,22.6,21.8,00.0,31.5,24.3,09.0,0000.0,0006.80,0003.56,0003.19
2022-02-13 07:56:00,,0831.9,5.00,0.00,22.6,21.8,00.0,31.5,24.3,09.0,0000.0,0006.74,0003.52,0003.14
2022-02-13 07:57:00,,0831.8,5.02,0.00,22.6,21.7,00.0,31.5,24.3,09.0,0000.0,0006.59,0003.50,0003.12
2022-02-13 07:58:00,,0831.8,5.00,0.00,22.6,21.7,00.0,31.5,24.3,09.1,0000.0,0006.52,0003.49,0003.10
2022-02-13 07:59:00,,0831.8,5.01,0.00,22.6,21.7,00.0,31.5,24.3,09.1,0000.0,0006.13,0003.48,0003.11
